This is the latest recevied weather packets stored in our database for station/object OE6ATD-13. If no packets are shown the sender has not sent any weather packets the latest 10 day(s).
| Time | Temp. | Humidity | Pressure | Rain* | Wind** | Luminosity | Snow |
|---|---|---|---|---|---|---|---|
| 1788165026 | 27.78° C | 49% | 1015.6 hPa | 0 mm | - | 644 W/m² | - |
| 1788164422 | 27.78° C | 51% | 1015.5 hPa | 0 mm | - | 618 W/m² | - |
| 1788163817 | 27.22° C | 53% | 1015.4 hPa | 0 mm | - | 586 W/m² | - |
| 1788163228 | 26.11° C | 58% | 1015.4 hPa | 0 mm | - | 554 W/m² | - |
| 1788162624 | 26.11° C | 57% | 1015.3 hPa | 0 mm | - | 526 W/m² | - |
| 1788162020 | 26.11° C | 59% | 1015.1 hPa | 0 mm | - | 494 W/m² | - |
| 1788161415 | 25° C | 60% | 1015.1 hPa | 0 mm | - | 459 W/m² | - |
| 1788160827 | 24.44° C | 60% | 1015 hPa | 0 mm | - | 428 W/m² | - |
| 1788160226 | 23.89° C | 61% | 1015 hPa | 0 mm | - | 390 W/m² | - |
| 1788159622 | 23.89° C | 62% | 1015 hPa | 0 mm | - | 365 W/m² | - |
| 1788159017 | 23.33° C | 63% | 1015 hPa | 0 mm | - | 341 W/m² | - |
| 1788158428 | 22.78° C | 66% | 1015.1 hPa | 0 mm | - | 298 W/m² | - |
| 1788157824 | 22.78° C | 67% | 1015 hPa | 0 mm | - | 252 W/m² | - |
| 1788157220 | 21.67° C | 72% | 1015 hPa | 0 mm | - | 209 W/m² | - |
| 1788156617 | 21.11° C | 74% | 1015 hPa | 0 mm | - | 167 W/m² | - |
| 1788156027 | 20.56° C | 75% | 1015 hPa | 0 mm | - | 138 W/m² | - |
| 1788155422 | 20.56° C | 78% | 1014.9 hPa | 0 mm | - | 118 W/m² | - |
| 1788154816 | 19.44° C | 84% | 1014.9 hPa | 0 mm | - | 100 W/m² | - |
| 1788154226 | 18.89° C | 93% | 1015 hPa | 0 mm | - | 85 W/m² | - |
| 1788153623 | 17.78° C | 99% | 1015 hPa | 0 mm | - | 65 W/m² | - |
| 1788153018 | 16.67° C | 99% | 1014.9 hPa | 0 mm | - | 53 W/m² | - |
| 1788152429 | 16.11° C | 99% | 1014.9 hPa | 0 mm | - | 39 W/m² | - |
| 1788151825 | 15.56° C | 99% | 1014.9 hPa | 0 mm | - | 28 W/m² | - |
| 1788151221 | 15° C | 99% | 1014.9 hPa | 0 mm | - | 16 W/m² | - |
| 1788150617 | 15° C | 99% | 1015 hPa | 0 mm | - | 6 W/m² | - |
* Rain latest hour (hover to see other rain measurements)
** Current wind speed in m/s (hover to see current wind gust speed)